Terminal Aerodrome Forecast
Issued by NWS

Home | Current Version | Previous Version | Graphics & Text | Print | Product List | Glossary On
Versions: 1 2 3 4 5 6 7 8 9 10 11 12 13
000
FTUS43 KTOP 252000 AAA
TAFMHK
TAF AMD
KMHK 252032Z 2521/2618 35013G22KT P6SM OVC025
     FM252300 33007KT P6SM BKN030
     FM260700 24006KT P6SM SCT040=

USA.gov is the U.S. government's official web portal to all federal, state and local government web resources and services.